Location: C&O Canal National Historical Park
(39.6184°N, 77.9938°W)
Time: 17:31:43
(UTC-04:00)

ISS - Visible Passes

Search period start: 15 July 2018 00:00
Search period end: 25 July 2018 00:00
Orbit: 402 x 408 km, 51.6° (Epoch: 16 July)

Date Brightness Start Highest point End Pass type
(mag) Time Alt. Az. Time Alt. Az. Time Alt. Az.
15 Jul -0.9 02:00:24 17° NNW 02:00:24 17° NNW 02:02:22 10° NNE visible
15 Jul -0.4 03:37:08 10° N 03:37:43 10° N 03:38:18 10° N visible
15 Jul -0.8 05:12:52 10° NNW 05:15:15 18° NNE 05:17:39 10° ENE visible
16 Jul -0.7 01:09:48 14° NNE 01:09:48 14° NNE 01:10:35 10° NNE visible
16 Jul -0.4 02:44:28 10° NNW 02:45:18 11° N 02:46:08 10° N visible
16 Jul -0.6 04:21:06 10° NNW 04:22:56 14° NNE 04:24:46 10° NE visible
17 Jul -0.5 01:51:39 10° NW 01:52:53 12° NNW 01:54:19 10° NNE visible
17 Jul -0.4 03:29:20 10° NNW 03:30:33 12° N 03:31:46 10° NNE visible
17 Jul -1.7 05:04:53 10° NW 05:07:51 30° NNE 05:10:50 10° E visible
18 Jul -0.7 01:00:32 15° NNW 01:00:32 15° NNW 01:02:31 10° NNE visible
18 Jul -0.2 02:37:27 10° N 02:38:07 10° N 02:38:47 10° NNE visible
18 Jul -1.0 04:13:02 10° NNW 04:15:36 21° NNE 04:18:10 10° ENE visible
18 Jul -3.6 22:28:11 10° SW 22:35:10 - ENE 22:30:47 49° SSW visible
19 Jul -1.1 00:07:08 18° NW 00:08:10 20° NNW 00:10:42 10° NNE visible
19 Jul -0.2 01:45:01 10° NNW 01:45:39 10° N 01:46:18 10° N visible
19 Jul -0.6 03:21:13 10° NNW 03:23:16 15° NNE 03:25:18 10° NE visible
19 Jul -3.4 04:56:58 10° NW 05:00:16 66° NE 05:03:31 10° ESE visible
19 Jul -3.1 21:36:29 10° SSW 21:39:25 31° SE 21:42:21 10° ENE visible
19 Jul -1.8 23:12:57 10° W 23:15:53 30° NNW 23:18:50 10° NE visible
20 Jul -0.2 00:52:01 10° NNW 00:53:12 11° N 00:54:23 10° NNE visible
20 Jul -0.3 02:29:25 10° NNW 02:30:52 12° NNE 02:32:18 10° NE visible
20 Jul -2.2 04:05:00 10° NW 04:08:05 36° NNE 04:11:10 10° E visible
20 Jul -2.9 22:20:29 10° WSW 22:23:40 50° NW 22:26:53 10° NE visible
20 Jul -0.5 23:58:58 10° NW 00:00:45 14° NNW 00:02:34 10° NNE visible
21 Jul -0.2 01:37:34 10° N 01:38:24 11° N 01:39:14 10° NNE visible
21 Jul -1.3 03:13:05 10° NNW 03:15:49 23° NNE 03:18:32 10° E visible
21 Jul -3.6 04:49:16 10° WNW 04:52:27 47° SW 04:55:38 10° SSE visible
21 Jul -3.9 21:28:15 10° SW 21:31:31 83° SE 21:34:49 10° NE visible
21 Jul -0.8 23:06:01 10° WNW 23:08:22 18° NNW 23:10:43 10° NNE visible
22 Jul -0.2 00:45:22 10° N 00:45:54 10° N 00:46:26 10° N visible
22 Jul -0.8 02:21:13 10° NNW 02:23:28 17° NNE 02:25:43 10° ENE visible
22 Jul -3.9 03:57:04 10° NW 04:00:22 84° NE 04:03:39 10° SE visible
22 Jul -1.4 22:13:13 10° W 22:16:01 25° NNW 22:18:50 10° NNE visible
22 Jul -0.3 23:52:28 10° NNW 23:53:24 11° N 23:54:21 10° N visible
23 Jul -0.5 01:29:23 10° NNW 01:30:51 13° N 01:30:51 13° N visible
23 Jul -2.3 21:20:37 10° WSW 21:23:44 41° NNW 21:26:52 10° NE visible
23 Jul -0.5 22:59:21 10° NW 23:00:54 13° NNW 23:02:29 10° NNE visible
24 Jul -0.4 00:37:31 10° N 00:38:34 11° N 00:39:27 10° NNE visible
24 Jul -0.7 22:06:18 10° WNW 22:08:27 16° NNW 22:10:37 10° NNE visible
24 Jul -0.3 23:45:29 10° N 23:46:02 10° N 23:46:34 10° N visible
